User: anonymous   Login
Location: Camp Creek
(33.9000°N, 111.8167°W)
Time: 17:49:43
(UTC-07:00)
Language:

DELTA 2 R/B (1) - Orbit

View from above orbital plane
View from above orbital plane
View from above satellite
View from above satellite

Ground track
Ground track

The orbit data is extracted from the following two-line orbital elements,

1 27665U 03005C   17084.50982644 +.00000040 +00000-0 +49680-4 0  9997
2 27665 039.5752 176.3317 0007865 080.1044 352.5587 14.28438123738964
Epoch (UTC): 25 March 2017 12:14:09
Eccentricity: 0.0007865
inclination: 39.5752°
perigee height: 791 km
apogee height: 802 km
right ascension of ascending node: 176.3317°
argument of perigee: 80.1044°
revolutions per day: 14.28438123
mean anomaly at epoch: 352.5587°
orbit number at epoch: 73896

The dashed part of the orbit path shows where the satellite is in the earth's shadow,  

DLR